Location: Hokitika
(42.7170°S, 170.9670°E)
Time: 12:45:51
(UTC+13:00)

Cosmos 1486 Rocket - Pass Details

Date: 24 January 2019
Orbit: 759 x 783 km, 74.1° (Epoch: 21 February)

Event Time Altitude Azimuth Distance (km) Brightness Sun altitude
Exits shadow 22:36:54 - 355° (N) 2,626 6.4 -14.0°
Reaches altitude 10° 22:37:46 10° 357° (N) 2,297 6.1 -14.1°
Maximum altitude 22:42:52 58° 74° (ENE) 896 4.1 -14.8°
Drops below altitude 10° 22:48:04 10° 152° (SSE) 2,338 6.7 -15.5°
Sets 22:50:30 0° 156° (SSE) 3,275 7.6 -15.8°
